FW7194 Weather Reports


Display with metric or nautical units.
time (UTC)temp
F
wind
direction
speed
MPH
gust
MPH
rain 1hr
in
rain 24hr
in
rain mn
in
humidity
%
barometer
mb
20260509215054 77 267 5.0 11.0 0.00 0.00 0.00 82 1009.8
20260509214551 77 225 2.0 14.0 0.00 0.00 0.00 81 1009.6
20260509214047 77 183 6.0 10.0 0.00 0.00 0.00 82 1009.7
20260509213543 77 171 1.0 5.0 0.00 0.00 0.00 82 1009.7
20260509213040 77 210 7.0 8.0 0.00 0.00 0.00 82 1009.9
20260509212537 77 196 1.0 3.0 0.00 0.00 0.00 82 1009.6
20260509212034 77 267 1.0 3.0 0.00 0.00 0.00 81 1009.6
20260509211529 77 248 4.0 7.0 0.00 0.00 0.00 81 1009.6
20260509211021 77 168 3.0 7.0 0.00 0.00 0.00 81 1009.4
20260509210518 77 196 3.0 6.0 0.00 0.00 0.00 81 1009.3
20260509210014 77 219 5.0 7.0 0.00 0.00 0.00 80 1009.3
20260509205509 77 217 3.0 7.0 0.00 0.00 0.00 80 1009.4
20260509205005 77 214 2.0 3.0 0.00 0.00 0.00 80 1009.5
20260509204500 78 241 5.0 7.0 0.00 0.00 0.00 80 1009.8
20260509203957 78 227 4.0 10.0 0.00 0.00 0.00 80 1009.6
20260509203453 78 250 2.0 7.0 0.00 0.00 0.00 80 1009.8
20260509202951 78 204 3.0 5.0 0.00 0.00 0.00 80 1009.9
20260509202447 78 203 5.0 10.0 0.00 0.00 0.00 79 1010.0
20260509201942 78 201 8.0 9.0 0.00 0.00 0.00 79 1009.8
20260509201437 78 192 6.0 7.0 0.00 0.00 0.00 80 1010.0
20260509200935 78 194 4.0 7.0 0.00 0.00 0.00 80 1010.0
20260509200434 78 209 3.0 8.0 0.00 0.00 0.00 79 1009.9
20260509195931 78 223 5.0 6.0 0.00 0.00 0.00 80 1010.0
20260509195421 78 208 3.0 6.0 0.00 0.00 0.00 79 1009.8
20260509194920 78 230 4.0 7.0 0.00 0.00 0.00 79 1009.8
20260509194417 78 176 3.0 6.0 0.00 0.00 0.00 79 1009.7
20260509193914 78 187 6.0 8.0 0.00 0.00 0.00 79 1009.7
20260509193413 78 202 4.0 7.0 0.00 0.00 0.00 78 1009.8
20260509192909 78 201 2.0 6.0 0.00 0.00 0.00 78 1010.0
20260509192406 78 188 1.0 5.0 0.00 0.00 0.00 79 1010.1
20260509191901 79 232 2.0 2.0 0.00 0.00 0.00 79 1010.3
20260509191357 79 195 0.0 2.0 0.00 0.00 0.00 78 1010.2
20260509190853 79 201 5.0 7.0 0.00 0.00 0.00 78 1010.2
20260509190350 79 211 0.0 2.0 0.00 0.00 0.00 77 1010.1
20260509185848 79 223 0.0 3.0 0.00 0.00 0.00 77 1010.2
20260509185344 79 188 2.0 3.0 0.00 0.00 0.00 77 1010.2
20260509184842 79 199 1.0 13.0 0.00 0.00 0.00 75 1010.4
20260509184338 79 245 1.0 5.0 0.00 0.00 0.00 76 1010.5
20260509183835 79 201 6.0 8.0 0.00 0.00 0.00 74 1010.4
20260509183330 79 188 3.0 5.0 0.00 0.00 0.00 75 1010.3
20260509182826 79 214 1.0 6.0 0.00 0.00 0.00 74 1010.3
20260509182324 79 218 1.0 5.0 0.00 0.00 0.00 74 1010.4
20260509181821 79 209 8.0 15.0 0.00 0.00 0.00 72 1010.2
20260509181318 79 196 6.0 16.0 0.00 0.00 0.00 74 1010.2
20260509180815 79 177 5.0 7.0 0.00 0.00 0.00 74 1010.2
20260509180311 78 131 3.0 5.0 0.00 0.00 0.00 75 1010.5
20260509175808 78 235 5.0 9.0 0.00 0.00 0.00 76 1010.5
20260509175306 78 195 2.0 5.0 0.00 0.00 0.00 76 1010.5
20260509174801 77 219 4.0 6.0 0.00 0.00 0.00 75 1010.7
20260509174256 77 220 2.0 5.0 0.00 0.00 0.00 76 1010.8
20260509173752 77 206 4.0 8.0 0.00 0.00 0.00 75 1010.5
20260509173248 77 204 6.0 8.0 0.00 0.00 0.00 74 1010.6
20260509172744 77 209 7.0 8.0 0.00 0.00 0.00 76 1011.0
20260509172241 77 213 2.0 11.0 0.00 0.00 0.00 76 1010.9
20260509171736 77 186 1.0 10.0 0.00 0.00 0.00 77 1011.2
20260509171233 77 204 5.0 8.0 0.00 0.00 0.00 78 1011.0
20260509170730 76 195 6.0 13.0 0.00 0.00 0.00 78 1011.0
20260509170225 76 179 4.0 10.0 0.00 0.00 0.00 79 1011.1
20260509165724 76 214 7.0 8.0 0.00 0.00 0.00 81 1011.2
20260509165219 76 193 1.0 6.0 0.00 0.00 0.00 82 1011.2
20260509164715 75 212 4.0 6.0 0.00 0.00 0.00 83 1011.5
20260509164211 76 153 4.0 7.0 0.00 0.00 0.00 84 1011.4
20260509163709 75 194 1.0 3.0 0.00 0.00 0.00 84 1011.5
20260509163206 76 222 3.0 5.0 0.00 0.00 0.00 84 1011.5
20260509162703 76 219 4.0 6.0 0.00 0.00 0.00 84 1011.4
20260509162158 76 233 2.0 6.0 0.00 0.00 0.00 84 1011.6
20260509161654 76 203 1.0 6.0 0.00 0.00 0.00 84 1011.3
20260509161150 76 235 7.0 9.0 0.00 0.00 0.00 85 1011.4
20260509160646 76 215 5.0 9.0 0.00 0.00 0.00 85 1011.2
20260509160141 76 225 0.0 3.0 0.00 0.00 0.00 86 1011.2
20260509155638 76 272 2.0 7.0 0.00 0.00 0.00 85 1011.2
20260509155134 76 215 4.0 8.0 0.00 0.00 0.00 85 1011.1
20260509154630 75 217 2.0 6.0 0.00 0.00 0.00 88 1011.0
20260509154127 75 192 4.0 6.0 0.00 0.00 0.00 89 1011.4
20260509153624 74 201 5.0 15.0 0.00 0.00 0.00 91 1011.5
20260509153121 74 191 5.0 7.0 0.00 0.00 0.00 92 1011.6
20260509152617 73 204 7.0 8.0 0.00 0.00 0.00 93 1011.7
20260509152114 73 199 5.0 6.0 0.00 0.00 0.00 94 1011.8
20260509151610 73 170 4.0 5.0 0.00 0.00 0.00 94 1011.9
20260509151108 73 194 2.0 5.0 0.00 0.00 0.00 94 1012.0
20260509150606 73 223 0.0 1.0 0.00 0.00 0.00 94 1012.2
20260509150104 72 219 0.0 0.0 0.00 0.00 0.00 94 1012.2
20260509145559 72 234 0.0 1.0 0.00 0.00 0.00 94 1011.9
20260509145055 72 206 0.0 3.0 0.00 0.00 0.00 94 1012.3
20260509144552 72 187 2.0 2.0 0.00 0.00 0.00 94 1012.1
20260509144049 72 201 0.0 3.0 0.00 0.00 0.00 95 1012.1
20260509143546 72 230 1.0 3.0 0.00 0.00 0.00 95 1012.0
20260509143044 72 220 5.0 10.0 0.00 0.00 0.00 95 1011.9
20260509142539 71 193 0.0 0.0 0.00 0.00 0.00 95 1011.9
20260509142035 71 147 0.0 0.0 0.00 0.00 0.00 95 1011.8
20260509141531 71 208 0.0 0.0 0.00 0.00 0.00 95 1011.9
20260509141028 71 208 0.0 0.0 0.00 0.00 0.00 95 1011.7
20260509140525 71 208 0.0 0.0 0.00 0.00 0.00 95 1011.7
20260509140023 71 207 0.0 0.0 0.00 0.00 0.00 95 1011.6
20260509135520 70 206 0.0 0.0 0.00 0.00 0.00 96 1011.5
20260509135017 70 216 1.0 5.0 0.00 0.00 0.00 96 1011.6
20260509134514 70 221 0.0 0.0 0.00 0.00 0.00 96 1011.6
20260509134012 70 189 2.0 3.0 0.00 0.00 0.00 96 1011.7
20260509133508 69 184 0.0 0.0 0.00 0.00 0.00 96 1011.8
20260509133007 69 230 0.0 0.0 0.00 0.00 0.00 96 1011.5
20260509132505 69 208 0.0 0.0 0.00 0.00 0.00 96 1011.7
20260509132002 69 208 0.0 0.0 0.00 0.00 0.00 97 1011.7
20260509131458 69 210 0.0 0.0 0.00 0.00 0.00 97 1012.0
20260509130955 69 208 0.0 0.0 0.00 0.00 0.00 97 1011.8
20260509130450 68 209 0.0 0.0 0.00 0.00 0.00 97 1011.8
20260509125948 68 196 0.0 0.0 0.00 0.00 0.00 97 1012.0
20260509125444 68 178 0.0 0.0 0.00 0.00 0.00 97 1012.0
20260509124940 68 171 0.0 1.0 0.00 0.00 0.00 97 1012.0
20260509124437 68 201 0.0 0.0 0.00 0.00 0.00 97 1011.9
20260509123934 67 165 0.0 0.0 0.00 0.00 0.00 97 1011.8
20260509123432 67 155 0.0 0.0 0.00 0.00 0.00 97 1012.0
20260509122928 66 158 0.0 0.0 0.00 0.00 0.00 97 1012.0
20260509122425 66 155 0.0 0.0 0.00 0.00 0.00 97 1011.8
20260509121921 66 150 0.0 0.0 0.00 0.00 0.00 97 1012.1
20260509121419 66 147 0.0 0.0 0.00 0.00 0.00 97 1012.0
20260509120917 65 135 0.0 0.0 0.00 0.00 0.00 97 1012.2
20260509120414 65 130 0.0 0.0 0.00 0.00 0.00 97 1011.9
20260509115912 65 137 0.0 0.0 0.00 0.00 0.00 97 1011.9
20260509115409 64 164 0.0 0.0 0.00 0.00 0.00 97 1012.0
20260509114906 64 194 0.0 0.0 0.00 0.00 0.00 97 1011.7
20260509114405 64 216 0.0 0.0 0.00 0.00 0.00 97 1011.7
20260509113904 64 216 0.0 0.0 0.00 0.00 0.00 97 1011.5
20260509113401 64 216 0.0 0.0 0.00 0.00 0.00 97 1011.6
20260509112857 64 216 0.0 0.0 0.00 0.00 0.00 97 1011.6
20260509112354 64 216 0.0 0.0 0.00 0.00 0.00 97 1011.4
20260509111852 64 216 0.0 0.0 0.00 0.00 0.00 97 1011.4
20260509111348 64 216 0.0 0.0 0.00 0.00 0.00 97 1011.7
20260509110846 63 216 0.0 0.0 0.00 0.00 0.00 96 1011.3
20260509110342 63 215 0.0 0.0 0.00 0.00 0.00 96 1011.3
20260509105841 63 215 0.0 0.0 0.00 0.00 0.00 96 1011.3
20260509105338 63 215 0.0 0.0 0.00 0.00 0.00 96 1011.2
20260509104835 63 215 0.0 0.0 0.00 0.00 0.00 96 1011.4
20260509104331 63 215 0.0 0.0 0.00 0.00 0.00 96 1011.1
20260509103829 63 215 0.0 0.0 0.00 0.00 0.00 96 1011.0
20260509103326 63 215 0.0 0.0 0.00 0.00 0.00 96 1011.0
20260509102825 63 216 0.0 0.0 0.00 0.00 0.00 96 1010.7
20260509102322 64 237 0.0 0.0 0.00 0.00 0.00 96 1011.2
20260509101818 64 229 0.0 0.0 0.00 0.00 0.00 96 1011.2
20260509101314 64 229 0.0 0.0 0.00 0.00 0.00 96 1011.0
20260509100812 64 231 0.0 0.0 0.00 0.00 0.00 96 1010.8
20260509100309 64 221 0.0 0.0 0.00 0.00 0.00 96 1010.9
20260509095805 64 223 0.0 0.0 0.00 0.00 0.00 96 1011.0
20260509095305 64 245 0.0 0.0 0.00 0.00 0.00 96 1010.9
20260509094800 64 246 0.0 0.0 0.00 0.00 0.00 96 1010.9
20260509094256 64 238 0.0 0.0 0.00 0.00 0.00 96 1010.6
20260509093754 64 215 0.0 0.0 0.00 0.00 0.00 96 1010.9
20260509093251 64 215 0.0 0.0 0.00 0.00 0.00 96 1010.9
20260509092750 64 214 0.0 0.0 0.00 0.00 0.00 96 1011.0
20260509092247 64 215 0.0 1.0 0.00 0.00 0.00 95 1011.0
20260509091745 64 241 0.0 0.0 0.00 0.00 0.00 95 1011.2
20260509091241 64 241 0.0 0.0 0.00 0.00 0.00 95 1011.3
20260509090739 64 241 0.0 0.0 0.00 0.00 0.00 95 1011.3
20260509090236 64 242 0.0 0.0 0.00 0.00 0.00 95 1011.1
20260509085734 64 203 0.0 1.0 0.00 0.00 0.00 95 1011.1
20260509085231 64 233 0.0 0.0 0.00 0.00 0.00 95 1011.1
20260509084727 64 208 0.0 0.0 0.00 0.00 0.00 95 1011.2
20260509084224 64 205 0.0 0.0 0.00 0.00 0.00 95 1011.0
20260509083722 64 205 0.0 0.0 0.00 0.00 0.00 95 1011.0
20260509083218 64 222 0.0 0.0 0.00 0.00 0.00 95 1011.4
20260509082715 64 222 0.0 0.0 0.00 0.00 0.00 95 1011.4
20260509082212 64 223 0.0 0.0 0.00 0.00 0.00 95 1011.6
20260509081709 64 221 0.0 0.0 0.00 0.00 0.00 95 1011.5
20260509081206 64 221 0.0 0.0 0.00 0.00 0.00 95 1011.3
20260509080704 64 224 0.0 0.0 0.00 0.00 0.00 95 1011.5
20260509080201 64 216 0.0 0.0 0.00 0.00 0.00 95 1011.5
20260509075700 64 216 0.0 0.0 0.00 0.00 0.00 95 1011.6
20260509075157 64 238 0.0 0.0 0.00 0.00 0.00 95 1011.6
20260509074654 64 335 0.0 0.0 0.00 0.00 0.00 95 1011.8
20260509074150 64 336 0.0 0.0 0.00 0.00 0.00 95 1012.0
20260509073647 64 336 0.0 0.0 0.00 0.00 0.00 95 1011.6
20260509073144 64 341 0.0 0.0 0.00 0.00 0.00 95 1011.2
20260509072641 64 341 0.0 0.0 0.00 0.00 0.00 95 1011.2
20260509072137 64 341 0.0 0.0 0.00 0.00 0.00 95 1011.3
20260509071634 64 341 1.0 1.0 0.00 0.00 0.00 94 1011.3
20260509071131 64 342 0.0 1.0 0.00 0.00 0.00 94 1011.3
20260509070628 64 339 0.0 0.0 0.00 0.00 0.00 94 1011.6
20260509070124 64 339 0.0 1.0 0.00 0.00 0.00 94 1011.6
20260509065619 64 352 1.0 3.0 0.00 0.00 0.00 94 1011.6
20260509065110 64 12 2.0 2.0 0.00 0.00 0.00 94 1011.3
20260509064608 64 128 3.0 3.0 0.00 0.00 0.00 94 1011.4
20260509064106 64 115 1.0 2.0 0.00 0.00 0.00 94 1012.0
20260509063602 64 281 0.0 0.0 0.00 0.00 0.00 94 1012.5
20260509063059 64 316 2.0 2.0 0.00 0.00 0.00 94 1012.6
20260509062556 64 12 2.0 3.0 0.00 0.00 0.00 94 1012.0
20260509062053 64 16 3.0 3.0 0.00 0.00 0.00 94 1011.8
20260509061550 64 144 0.0 0.0 0.00 0.00 0.00 93 1012.1
20260509061047 64 216 0.0 0.0 0.00 0.00 0.00 93 1012.2
20260509060545 64 208 0.0 0.0 0.00 0.00 0.00 93 1012.3
20260509060040 64 244 0.0 0.0 0.00 0.00 0.00 93 1012.5
20260509055536 64 245 0.0 0.0 0.00 0.00 0.00 93 1012.7
20260509055033 64 225 0.0 0.0 0.00 0.00 0.00 93 1012.4
20260509054529 64 191 0.0 0.0 0.00 0.00 0.00 93 1012.3
20260509054027 64 134 1.0 1.0 0.00 0.00 0.00 93 1012.2
20260509053525 63 185 1.0 5.0 0.00 0.00 0.00 93 1012.2
20260509053016 63 123 0.0 1.0 0.00 0.00 0.00 93 1012.5
20260509052514 63 223 1.0 1.0 0.00 0.00 0.00 92 1013.0
20260509052012 63 190 3.0 5.0 0.00 0.00 0.00 92 1012.8
20260509051509 63 201 0.0 0.0 0.00 0.00 0.00 92 1013.4
20260509051006 63 239 0.0 0.0 0.00 0.00 0.00 92 1013.7
20260509050502 63 239 0.0 0.0 0.00 0.00 0.00 92 1013.5
20260509045959 63 240 0.0 0.0 0.00 0.00 0.00 92 1013.6
20260509045456 63 240 0.0 0.0 0.00 0.00 0.00 92 1013.7
20260509044953 63 240 0.0 0.0 0.00 0.00 0.00 92 1014.1
20260509044451 63 240 0.0 2.0 0.00 0.00 0.00 92 1013.9
20260509043948 63 239 1.0 2.0 0.00 0.00 0.00 92 1013.5
20260509043443 63 231 0.0 1.0 0.00 0.00 0.00 92 1013.3
20260509042940 63 192 0.0 0.0 0.00 0.00 0.00 91 1013.0
20260509042437 63 210 0.0 0.0 0.00 0.00 0.00 91 1013.4
20260509041933 63 218 0.0 0.0 0.00 0.00 0.00 91 1013.7
20260509041430 63 218 0.0 0.0 0.00 0.00 0.00 91 1013.8
20260509040928 63 219 0.0 0.0 0.00 0.00 0.00 91 1014.4
20260509040426 63 220 0.0 0.0 0.00 0.00 0.00 90 1014.5
20260509035922 63 220 0.0 0.0 0.00 0.00 0.00 90 1014.6
20260509035419 63 220 0.0 0.0 0.00 0.00 0.00 90 1014.2
20260509034915 63 220 0.0 0.0 0.00 0.00 0.00 90 1014.3
20260509034414 63 220 0.0 0.0 0.00 0.00 0.00 90 1014.2
20260509033910 63 220 0.0 0.0 0.00 0.00 0.00 90 1014.3
20260509033407 63 220 0.0 0.0 0.00 0.00 0.00 90 1014.3
20260509032904 63 220 0.0 0.0 0.00 0.00 0.00 90 1014.3
20260509032401 63 220 0.0 0.0 0.00 0.00 0.00 89 1014.3
20260509031859 63 220 0.0 0.0 0.00 0.00 0.00 89 1014.6
20260509031356 63 220 0.0 0.0 0.00 0.00 0.00 89 1014.3
20260509030854 63 220 0.0 0.0 0.00 0.00 0.00 89 1014.4
20260509030351 63 220 0.0 0.0 0.00 0.00 0.00 89 1014.6
20260509025848 63 220 0.0 0.0 0.00 0.00 0.00 89 1014.4
20260509025343 63 220 0.0 0.0 0.00 0.00 0.00 89 1014.5
20260509024839 63 115 0.0 0.0 0.00 0.00 0.00 88 1014.2
20260509024335 63 115 0.0 0.0 0.00 0.00 0.00 88 1014.3
20260509023833 63 209 0.0 1.0 0.00 0.00 0.00 88 1014.1
20260509023330 63 211 0.0 0.0 0.00 0.00 0.00 88 1014.4
20260509022827 63 211 0.0 0.0 0.00 0.00 0.00 88 1014.3
20260509022324 63 210 0.0 0.0 0.00 0.00 0.00 88 1014.2
20260509021820 63 211 0.0 0.0 0.00 0.00 0.00 87 1014.2
20260509021318 63 210 0.0 0.0 0.00 0.00 0.00 87 1014.2
20260509020816 64 210 0.0 0.0 0.00 0.00 0.00 87 1014.3
20260509020314 64 210 0.0 0.0 0.00 0.00 0.00 87 1014.1
20260509015811 64 210 0.0 0.0 0.00 0.00 0.00 87 1014.0
20260509015309 64 210 0.0 0.0 0.00 0.00 0.00 86 1014.1
20260509014805 64 210 0.0 0.0 0.00 0.00 0.00 86 1014.2
20260509014302 64 211 0.0 0.0 0.00 0.00 0.00 86 1013.9
20260509013759 64 210 0.0 0.0 0.00 0.00 0.00 85 1014.1
20260509013254 64 210 0.0 0.0 0.00 0.00 0.00 85 1013.8
20260509012751 64 210 0.0 0.0 0.00 0.00 0.00 85 1014.0
20260509012248 64 211 0.0 0.0 0.00 0.00 0.00 85 1014.1
20260509011745 64 210 0.0 0.0 0.00 0.00 0.00 85 1013.9
20260509011242 64 210 0.0 0.0 0.00 0.00 0.00 84 1014.0
20260509010740 64 210 0.0 0.0 0.00 0.00 0.00 84 1014.0
20260509010237 64 210 0.0 0.0 0.00 0.00 0.00 84 1013.9
20260509005735 65 210 0.0 0.0 0.00 0.00 0.00 84 1014.0
20260509005232 65 210 0.0 1.0 0.00 0.00 0.00 83 1013.8
20260509004731 65 199 0.0 0.0 0.00 0.00 0.00 83 1013.6
20260509004229 65 125 1.0 2.0 0.00 0.00 0.00 83 1013.9
20260509003727 65 163 0.0 1.0 0.00 0.00 0.00 83 1013.4
20260509003224 65 170 0.0 1.0 0.00 0.00 0.00 83 1013.6
20260509002722 65 201 0.0 1.0 0.00 0.00 0.00 82 1013.6
20260509002219 65 197 0.0 1.0 0.00 0.00 0.00 82 1013.4
20260509001717 65 165 0.0 2.0 0.00 0.00 0.00 81 1013.5
20260509001212 65 205 0.0 1.0 0.00 0.00 0.00 81 1013.6
20260509000711 65 168 1.0 2.0 0.00 0.00 0.00 81 1013.5
20260509000208 66 127 1.0 2.0 0.00 0.00 0.00 81 1013.4
20260508235704 66 137 1.0 2.0 0.00 0.00 0.00 81 1013.4
20260508235201 66 129 2.0 2.0 0.00 0.00 0.00 81 1013.2
20260508234658 66 137 1.0 2.0 0.00 0.00 0.00 81 1013.0
20260508234155 66 148 1.0 3.0 0.00 0.00 0.00 80 1013.0
20260508233654 66 167 0.0 2.0 0.00 0.00 0.00 80 1013.4
20260508233151 66 148 3.0 3.0 0.00 0.00 0.00 80 1013.4
20260508232649 66 144 2.0 2.0 0.00 0.00 0.00 80 1013.1
20260508232145 66 155 2.0 2.0 0.00 0.00 0.00 80 1013.4
20260508231643 66 191 1.0 3.0 0.00 0.00 0.00 80 1013.5
20260508231139 66 151 2.0 3.0 0.00 0.00 0.00 79 1013.4
20260508230636 66 126 2.0 3.0 0.00 0.00 0.00 79 1013.7
20260508230133 66 143 1.0 2.0 0.00 0.00 0.00 79 1013.5
20260508225631 66 170 0.0 5.0 0.00 0.00 0.00 79 1013.5
20260508225126 66 185 4.0 5.0 0.00 0.00 0.00 79 1013.2
20260508224625 66 163 2.0 3.0 0.00 0.00 0.00 78 1013.2
20260508224122 66 119 3.0 5.0 0.00 0.00 0.00 78 1013.5
20260508223619 66 150 3.0 6.0 0.00 0.00 0.00 78 1013.2
20260508223116 66 175 3.0 6.0 0.00 0.00 0.00 77 1013.1
20260508222614 66 146 5.0 7.0 0.00 0.00 0.00 77 1013.4
20260508222111 67 140 4.0 5.0 0.00 0.00 0.00 77 1013.6
20260508221607 67 153 4.0 6.0 0.00 0.00 0.00 77 1013.6
20260508221103 67 148 3.0 6.0 0.00 0.00 0.00 77 1013.5
20260508220559 67 101 2.0 3.0 0.00 0.00 0.00 77 1013.1
20260508220055 67 167 2.0 6.0 0.00 0.00 0.00 77 1013.5
20260508215553 67 189 0.0 6.0 0.00 0.00 0.00 77 1013.5